Location: Kimberly
(42.5380°N, 114.3640°W)
Time: 23:31:55
(UTC-07:00)

BlueWalker 3 - Visible Passes

Search period start: 07 December 2023 00:00
Search period end: 17 December 2023 00:00
Orbit: 490 x 503 km, 53.2° (Epoch: 07 December)

Date Brightness Start Highest point End Pass type
(mag) Time Alt. Az. Time Alt. Az. Time Alt. Az.
07 Dec 4.2 06:17:33 12° SW 06:17:33 12° SW 06:18:19 10° SSW visible
12 Dec 4.4 19:42:39 10° SSW 19:43:35 16° SSW 19:43:35 16° SSW visible
13 Dec 3.3 19:19:55 10° SSW 19:22:12 31° SSW 19:22:12 31° SSW visible
14 Dec 2.3 18:57:09 10° SSW 19:00:43 47° SE 19:00:43 47° SE visible
15 Dec 2.3 18:34:23 10° SSW 18:38:04 46° SE 18:39:10 35° E visible
15 Dec 5.0 20:13:02 10° W 20:13:44 14° W 20:13:44 14° W visible
16 Dec 2.4 18:11:36 10° SSW 18:15:17 46° SE 18:17:32 21° ENE visible
16 Dec 4.2 19:50:14 10° W 19:52:06 23° WNW 19:52:06 23° WNW visible
